TimeCDT,TemperatureF,Dew PointF,Humidity,Sea Level PressureIn,VisibilityMPH,Wind Direction,Wind SpeedMPH,Gust SpeedMPH,PrecipitationIn,Events,Conditions,WindDirDegrees,DateUTC
12:53 AM,75.9,72.0,87,30.02,10.0,Calm,Calm,-,N/A,,Clear,0,2013-08-20 05:53:00
1:53 AM,73.9,71.1,91,30.00,10.0,NNE,3.5,-,N/A,,Clear,20,2013-08-20 06:53:00
2:53 AM,75.0,71.1,87,30.00,10.0,Calm,Calm,-,N/A,,Clear,0,2013-08-20 07:53:00
3:53 AM,75.0,71.1,87,29.99,10.0,Calm,Calm,-,N/A,,Clear,0,2013-08-20 08:53:00
4:53 AM,75.0,71.1,87,30.00,10.0,NE,3.5,-,N/A,,Clear,50,2013-08-20 09:53:00
5:53 AM,75.0,71.1,87,30.01,10.0,ENE,3.5,-,N/A,,Clear,60,2013-08-20 10:53:00
6:53 AM,75.0,72.0,90,30.02,10.0,NE,3.5,-,N/A,,Scattered Clouds,50,2013-08-20 11:53:00
7:53 AM,75.9,73.0,91,30.04,10.0,NE,5.8,-,N/A,,Mostly Cloudy,50,2013-08-20 12:53:00
8:53 AM,79.0,73.9,84,30.05,10.0,ENE,5.8,-,N/A,,Overcast,70,2013-08-20 13:53:00
9:51 AM,84.2,73.4,70,30.04,10.0,North,6.9,-,N/A,,Mostly Cloudy,10,2013-08-20 14:51:00
9:53 AM,84.0,73.9,72,30.06,10.0,NNE,5.8,-,N/A,,Mostly Cloudy,20,2013-08-20 14:53:00
10:06 AM,82.4,73.4,74,30.04,10.0,North,3.5,-,N/A,,Overcast,10,2013-08-20 15:06:00
10:21 AM,82.4,73.4,74,30.04,10.0,NNW,5.8,-,N/A,,Mostly Cloudy,330,2013-08-20 15:21:00
10:29 AM,80.6,71.6,74,30.05,10.0,West,11.5,17.3,N/A,Thunderstorm,Overcast,270,2013-08-20 15:29:00
10:39 AM,75.2,71.6,89,30.06,10.0,West,9.2,16.1,0.00,Rain,Light Rain,280,2013-08-20 15:39:00
10:53 AM,75.0,72.0,90,30.08,9.0,WSW,6.9,-,0.01,Rain-Thunderstorm,Light Thunderstorms and Rain,250,2013-08-20 15:53:00
11:51 AM,75.2,73.4,94,30.07,10.0,East,9.2,-,0.06,Rain-Thunderstorm,Light Rain,100,2013-08-20 16:51:00
11:53 AM,75.0,73.0,94,30.10,10.0,ESE,9.2,-,0.06,Rain-Thunderstorm,Light Rain,110,2013-08-20 16:53:00
12:22 PM,75.2,71.6,89,30.06,10.0,NE,3.5,-,0.02,Rain,Rain,50,2013-08-20 17:22:00
12:53 PM,75.0,73.0,94,30.08,10.0,NE,4.6,-,0.05,Rain,Light Rain,40,2013-08-20 17:53:00
1:53 PM,75.0,72.0,90,30.07,10.0,NE,3.5,-,0.08,Rain,Light Rain,50,2013-08-20 18:53:00
2:53 PM,80.1,73.9,81,30.06,10.0,NNE,4.6,-,0.01,,Partly Cloudy,30,2013-08-20 19:53:00
3:53 PM,84.9,73.9,69,30.05,10.0,ENE,5.8,-,N/A,,Clear,60,2013-08-20 20:53:00
4:53 PM,82.9,72.0,69,30.04,10.0,NE,4.6,-,N/A,,Clear,40,2013-08-20 21:53:00
5:53 PM,82.9,72.0,69,30.01,10.0,ENE,4.6,-,N/A,,Partly Cloudy,60,2013-08-20 22:53:00
6:53 PM,82.0,73.9,76,30.01,10.0,East,5.8,-,0.00,,Clear,90,2013-08-20 23:53:00
7:53 PM,81.0,73.0,77,30.03,10.0,Calm,Calm,-,N/A,,Clear,0,2013-08-21 00:53:00
8:53 PM,79.0,73.0,82,30.03,10.0,East,3.5,-,N/A,,Clear,90,2013-08-21 01:53:00
9:53 PM,78.1,73.0,84,30.04,10.0,Calm,Calm,-,N/A,,Clear,0,2013-08-21 02:53:00
10:53 PM,75.9,73.0,91,30.05,10.0,East,4.6,-,N/A,,Clear,80,2013-08-21 03:53:00
11:53 PM,75.9,73.0,91,30.06,10.0,East,6.9,-,N/A,,Clear,80,2013-08-21 04:53:00